Location: Bishopstone
(51.0167°N, 1.9000°W)
Time: 05:40:45
(UTC+00:00)

Cosmos 1980 - Pass Details

Date: 16 September 2019
Orbit: 841 x 845 km, 71.0° (Epoch: 19 October)

Event Time Altitude Azimuth Distance (km) Brightness Sun altitude
Rises 20:17:58 0° 328° (NNW) 3,410 7.9 -18.4°
Reaches altitude 10° 20:20:25 10° 327° (NNW) 2,471 7.1 -18.8°
Maximum altitude 20:26:04 72° 245° (WSW) 887 3.8 -19.5°
Enters shadow 20:29:15 27° 166° (SSE) 1,577 4.7 -20.0°
